Time,TemperatureF,DewpointF,PressureIn,WindDirection,WindDirectionDegrees,WindSpeedMPH,WindSpeedGustMPH,Humidity,HourlyPrecipIn,Conditions,Clouds,dailyrainin,SoftwareType,DateUTC
2013-07-05 00:11:00,74.7,72.0,30.37,SSE,150,0.0,1.0,90,0.00,,,0.00,weatherlink.com 1.10,2013-07-05 04:11:00,
2013-07-05 00:27:00,75.0,72.0,30.38,East,96,0.0,3.0,90,0.00,,,0.00,weatherlink.com 1.10,2013-07-05 04:27:00,
2013-07-05 00:42:00,75.0,72.0,30.37,SSW,193,0.0,3.0,89,0.00,,,0.00,weatherlink.com 1.10,2013-07-05 04:42:00,
2013-07-05 00:57:00,74.7,72.0,30.37,SSE,161,2.0,3.0,90,0.00,,,0.00,weatherlink.com 1.10,2013-07-05 04:57:00,
2013-07-05 01:12:00,75.1,71.0,30.37,SE,136,0.0,2.0,88,0.00,,,0.00,weatherlink.com 1.10,2013-07-05 05:12:00,
2013-07-05 01:27:00,75.2,71.0,30.37,SE,146,0.0,3.0,87,0.00,,,0.00,weatherlink.com 1.10,2013-07-05 05:27:00,
2013-07-05 01:42:00,75.3,72.0,30.37,SSE,167,1.0,3.0,88,0.00,,,0.00,weatherlink.com 1.10,2013-07-05 05:42:00,
2013-07-05 01:57:00,75.1,71.0,30.37,South,184,0.0,6.0,87,0.00,,,0.00,weatherlink.com 1.10,2013-07-05 05:57:00,
2013-07-05 02:12:00,74.8,71.0,30.37,SSE,157,0.0,1.0,87,0.00,,,0.00,weatherlink.com 1.10,2013-07-05 06:12:00,
2013-07-05 02:27:00,74.7,71.0,30.37,ESE,118,0.0,2.0,88,0.00,,,0.00,weatherlink.com 1.10,2013-07-05 06:27:00,
2013-07-05 02:42:00,74.3,71.0,30.37,ESE,108,1.0,2.0,89,0.00,,,0.00,weatherlink.com 1.10,2013-07-05 06:42:00,
2013-07-05 02:57:00,74.0,71.0,30.37,ESE,108,0.0,1.0,89,0.00,,,0.00,weatherlink.com 1.10,2013-07-05 06:57:00,
2013-07-05 03:12:00,73.6,71.0,30.37,ESE,108,0.0,1.0,90,0.00,,,0.00,weatherlink.com 1.10,2013-07-05 07:12:00,
2013-07-05 03:27:00,73.3,71.0,30.37,ESE,108,0.0,1.0,91,0.00,,,0.00,weatherlink.com 1.10,2013-07-05 07:27:00,
2013-07-05 03:42:00,72.9,71.0,30.37,ESE,108,0.0,1.0,92,0.00,,,0.00,weatherlink.com 1.10,2013-07-05 07:42:00,
2013-07-05 03:57:00,73.1,71.0,30.36,SE,133,0.0,2.0,92,0.00,,,0.00,weatherlink.com 1.10,2013-07-05 07:57:00,
2013-07-05 04:12:00,72.9,71.0,30.37,NNE,29,0.0,1.0,92,0.00,,,0.00,weatherlink.com 1.10,2013-07-05 08:12:00,
2013-07-05 04:27:00,72.9,71.0,30.37,NNE,29,0.0,2.0,92,0.00,,,0.00,weatherlink.com 1.10,2013-07-05 08:27:00,
2013-07-05 04:42:00,72.6,71.0,30.36,NNE,29,0.0,1.0,93,0.00,,,0.00,weatherlink.com 1.10,2013-07-05 08:42:00,
2013-07-05 04:57:00,72.5,70.0,30.37,SSE,167,0.0,2.0,93,0.00,,,0.00,weatherlink.com 1.10,2013-07-05 08:57:00,
2013-07-05 05:27:00,72.7,71.0,30.37,SE,125,1.0,3.0,93,0.00,,,0.00,weatherlink.com 1.10,2013-07-05 09:27:00,
2013-07-05 05:42:00,73.4,71.0,30.38,SW,218,4.0,6.0,92,0.00,,,0.00,weatherlink.com 1.10,2013-07-05 09:42:00,
2013-07-05 05:57:00,74.1,71.0,30.38,East,84,2.0,3.0,91,0.00,,,0.00,weatherlink.com 1.10,2013-07-05 09:57:00,
2013-07-05 06:12:00,74.4,71.0,30.37,SE,143,0.0,2.0,90,0.00,,,0.00,weatherlink.com 1.10,2013-07-05 10:12:00,
2013-07-05 06:27:00,74.4,72.0,30.38,SE,136,0.0,5.0,91,0.00,,,0.00,weatherlink.com 1.10,2013-07-05 10:27:00,
2013-07-05 06:42:00,74.6,72.0,30.37,ENE,78,1.0,3.0,90,0.00,,,0.00,weatherlink.com 1.10,2013-07-05 10:42:00,
2013-07-05 06:57:00,75.0,72.0,30.38,SE,145,0.0,3.0,90,0.00,,,0.00,weatherlink.com 1.10,2013-07-05 10:57:00,
2013-07-05 07:27:00,75.2,72.0,30.38,SE,131,0.0,4.0,90,0.00,,,0.00,weatherlink.com 1.10,2013-07-05 11:27:00,
2013-07-05 07:42:00,76.0,73.0,30.38,SE,131,0.0,1.0,90,0.00,,,0.00,weatherlink.com 1.10,2013-07-05 11:42:00,
2013-07-05 07:57:00,77.4,74.0,30.38,NNE,23,0.0,2.0,88,0.00,,,0.00,weatherlink.com 1.10,2013-07-05 11:57:00,
2013-07-05 08:12:00,79.0,74.0,30.38,NE,43,0.0,4.0,85,0.00,,,0.00,weatherlink.com 1.10,2013-07-05 12:12:00,
2013-07-05 08:27:00,81.1,75.0,30.38,NW,321,2.0,2.0,81,0.00,,,0.00,weatherlink.com 1.10,2013-07-05 12:27:00,
2013-07-05 08:57:00,83.9,74.0,30.37,WNW,299,2.0,3.0,73,0.00,,,0.00,weatherlink.com 1.10,2013-07-05 12:57:00,
2013-07-05 09:42:00,85.4,74.0,30.36,SSW,192,3.0,5.0,69,0.00,,,0.00,weatherlink.com 1.10,2013-07-05 13:42:00,
2013-07-05 09:57:00,86.6,75.0,30.36,SE,136,2.0,7.0,68,0.00,,,0.00,weatherlink.com 1.10,2013-07-05 13:57:00,
2013-07-05 10:12:00,87.2,75.0,30.36,ESE,114,0.0,6.0,66,0.00,,,0.00,weatherlink.com 1.10,2013-07-05 14:12:00,
2013-07-05 10:27:00,88.1,75.0,30.36,South,180,2.0,3.0,65,0.00,,,0.00,weatherlink.com 1.10,2013-07-05 14:27:00,
2013-07-05 10:42:00,89.4,74.0,30.36,NNE,14,1.0,6.0,61,0.00,,,0.00,weatherlink.com 1.10,2013-07-05 14:42:00,
2013-07-05 10:57:00,90.2,74.0,30.35,SSW,200,0.0,4.0,60,0.00,,,0.00,weatherlink.com 1.10,2013-07-05 14:57:00,
2013-07-05 11:27:00,91.0,74.0,30.35,SE,134,2.0,4.0,58,0.00,,,0.00,weatherlink.com 1.10,2013-07-05 15:27:00,
2013-07-05 11:42:00,90.9,74.0,30.35,South,190,3.0,6.0,58,0.00,,,0.00,weatherlink.com 1.10,2013-07-05 15:42:00,
2013-07-05 11:57:00,90.7,73.0,30.34,SSW,210,4.0,7.0,57,0.00,,,0.00,weatherlink.com 1.10,2013-07-05 15:57:00,
2013-07-05 12:12:00,91.7,72.0,30.34,SSE,161,1.0,6.0,53,0.00,,,0.00,weatherlink.com 1.10,2013-07-05 16:12:00,
2013-07-05 12:27:00,92.4,72.0,30.34,SSW,204,2.0,5.0,52,0.00,,,0.00,weatherlink.com 1.10,2013-07-05 16:27:00,
2013-07-05 12:42:00,92.9,73.0,30.34,North,355,1.0,8.0,53,0.00,,,0.00,weatherlink.com 1.10,2013-07-05 16:42:00,
2013-07-05 12:57:00,94.9,73.0,30.34,ENE,58,0.0,5.0,50,0.00,,,0.00,weatherlink.com 1.10,2013-07-05 16:57:00,
2013-07-05 13:12:00,94.3,73.0,30.33,SE,146,0.0,4.0,50,0.00,,,0.00,weatherlink.com 1.10,2013-07-05 17:12:00,
2013-07-05 13:27:00,93.7,73.0,30.33,SE,143,0.0,6.0,52,0.00,,,0.00,weatherlink.com 1.10,2013-07-05 17:27:00,
2013-07-05 13:42:00,92.6,74.0,30.32,SSW,205,4.0,8.0,54,0.00,,,0.00,weatherlink.com 1.10,2013-07-05 17:42:00,
2013-07-05 13:57:00,92.3,73.0,30.32,SSW,201,4.0,5.0,53,0.00,,,0.00,weatherlink.com 1.10,2013-07-05 17:57:00,
2013-07-05 14:12:00,93.5,73.0,30.32,ESE,118,3.0,5.0,52,0.00,,,0.00,weatherlink.com 1.10,2013-07-05 18:12:00,
2013-07-05 14:27:00,94.0,72.0,30.32,East,96,3.0,7.0,49,0.00,,,0.00,weatherlink.com 1.10,2013-07-05 18:27:00,
2013-07-05 14:42:00,93.9,73.0,30.31,SSW,202,1.0,7.0,50,0.00,,,0.00,weatherlink.com 1.10,2013-07-05 18:42:00,
2013-07-05 14:57:00,94.2,73.0,30.31,ESE,114,0.0,4.0,51,0.00,,,0.00,weatherlink.com 1.10,2013-07-05 18:57:00,
2013-07-05 15:13:00,92.4,73.0,30.30,SSW,205,1.0,6.0,53,0.00,,,0.00,weatherlink.com 1.10,2013-07-05 19:13:00,
2013-07-05 15:28:00,91.7,73.0,30.30,SSW,196,4.0,7.0,54,0.00,,,0.00,weatherlink.com 1.10,2013-07-05 19:28:00,
2013-07-05 15:43:00,92.9,74.0,30.30,NNW,338,0.0,4.0,54,0.00,,,0.00,weatherlink.com 1.10,2013-07-05 19:43:00,
2013-07-05 15:58:00,91.0,74.0,30.29,SE,144,2.0,6.0,57,0.00,,,0.00,weatherlink.com 1.10,2013-07-05 19:58:00,
2013-07-05 16:13:00,92.6,74.0,30.29,SSE,159,1.0,3.0,54,0.00,,,0.00,weatherlink.com 1.10,2013-07-05 20:13:00,
2013-07-05 16:28:00,92.0,72.0,30.29,SE,130,3.0,8.0,53,0.00,,,0.00,weatherlink.com 1.10,2013-07-05 20:28:00,
2013-07-05 16:43:00,91.7,73.0,30.28,ENE,74,2.0,6.0,55,0.00,,,0.00,weatherlink.com 1.10,2013-07-05 20:43:00,
2013-07-05 16:58:00,91.1,74.0,30.28,SSE,167,3.0,5.0,58,0.00,,,0.00,weatherlink.com 1.10,2013-07-05 20:58:00,
2013-07-05 17:13:00,90.6,73.0,30.28,SSW,208,2.0,11.0,56,0.00,,,0.00,weatherlink.com 1.10,2013-07-05 21:13:00,
2013-07-05 17:28:00,90.1,75.0,30.27,SE,139,2.0,5.0,61,0.00,,,0.00,weatherlink.com 1.10,2013-07-05 21:28:00,
2013-07-05 17:43:00,88.7,73.0,30.27,South,174,0.0,6.0,60,0.00,,,0.00,weatherlink.com 1.10,2013-07-05 21:43:00,
2013-07-05 17:58:00,87.7,73.0,30.27,ENE,73,0.0,4.0,62,0.00,,,0.00,weatherlink.com 1.10,2013-07-05 21:58:00,
2013-07-05 18:13:00,86.7,73.0,30.27,East,90,2.0,5.0,64,0.00,,,0.00,weatherlink.com 1.10,2013-07-05 22:13:00,
2013-07-05 18:28:00,86.1,73.0,30.26,SW,234,0.0,5.0,66,0.00,,,0.00,weatherlink.com 1.10,2013-07-05 22:28:00,
2013-07-05 18:43:00,85.2,73.0,30.26,South,179,2.0,6.0,66,0.00,,,0.00,weatherlink.com 1.10,2013-07-05 22:43:00,
2013-07-05 18:58:00,84.1,72.0,30.26,SSE,163,1.0,7.0,68,0.00,,,0.00,weatherlink.com 1.10,2013-07-05 22:58:00,
2013-07-05 19:13:00,83.8,72.0,30.26,South,178,1.0,5.0,67,0.00,,,0.00,weatherlink.com 1.10,2013-07-05 23:13:00,
2013-07-05 19:28:00,83.2,72.0,30.27,South,171,0.0,5.0,69,0.00,,,0.00,weatherlink.com 1.10,2013-07-05 23:28:00,
2013-07-05 19:43:00,82.6,73.0,30.27,South,178,0.0,6.0,73,0.00,,,0.00,weatherlink.com 1.10,2013-07-05 23:43:00,
2013-07-05 19:58:00,81.7,72.0,30.26,SSE,165,2.0,5.0,73,0.00,,,0.00,weatherlink.com 1.10,2013-07-05 23:58:00,
2013-07-05 20:13:00,81.1,73.0,30.26,SE,126,1.0,5.0,75,0.00,,,0.00,weatherlink.com 1.10,2013-07-06 00:13:00,
2013-07-05 20:28:00,80.2,73.0,30.26,SE,140,1.0,2.0,78,0.00,,,0.00,weatherlink.com 1.10,2013-07-06 00:28:00,
2013-07-05 20:43:00,79.2,72.0,30.26,ESE,123,0.0,0.0,79,0.00,,,0.00,weatherlink.com 1.10,2013-07-06 00:43:00,
2013-07-05 20:58:00,78.3,72.0,30.27,ESE,123,0.0,1.0,80,0.00,,,0.00,weatherlink.com 1.10,2013-07-06 00:58:00,
2013-07-05 21:13:00,77.7,71.0,30.28,ESE,123,0.0,1.0,81,0.00,,,0.00,weatherlink.com 1.10,2013-07-06 01:13:00,
2013-07-05 21:28:00,77.5,72.0,30.28,ESE,117,0.0,1.0,82,0.00,,,0.00,weatherlink.com 1.10,2013-07-06 01:28:00,
2013-07-05 21:43:00,77.3,72.0,30.28,ESE,117,0.0,2.0,83,0.00,,,0.00,weatherlink.com 1.10,2013-07-06 01:43:00,
2013-07-05 21:58:00,77.1,72.0,30.29,ESE,119,0.0,2.0,83,0.00,,,0.00,weatherlink.com 1.10,2013-07-06 01:58:00,
2013-07-05 22:13:00,77.4,72.0,30.29,ESE,122,0.0,1.0,83,0.00,,,0.00,weatherlink.com 1.10,2013-07-06 02:13:00,
2013-07-05 22:28:00,77.3,72.0,30.29,South,183,1.0,2.0,83,0.00,,,0.00,weatherlink.com 1.10,2013-07-06 02:28:00,
2013-07-05 22:43:00,77.0,72.0,30.30,South,182,0.0,1.0,83,0.00,,,0.00,weatherlink.com 1.10,2013-07-06 02:43:00,
2013-07-05 22:58:00,77.0,71.0,30.30,East,94,0.0,2.0,82,0.00,,,0.00,weatherlink.com 1.10,2013-07-06 02:58:00,
2013-07-05 23:13:00,76.7,71.0,30.30,East,94,0.0,2.0,83,0.00,,,0.00,weatherlink.com 1.10,2013-07-06 03:13:00,
2013-07-05 23:28:00,76.5,71.0,30.30,East,94,0.0,2.0,84,0.00,,,0.00,weatherlink.com 1.10,2013-07-06 03:28:00,
2013-07-05 23:44:00,76.3,72.0,30.30,East,94,1.0,2.0,85,0.00,,,0.00,weatherlink.com 1.10,2013-07-06 03:44:00,
2013-07-05 23:49:00,76.2,71.0,30.30,East,94,0.0,1.0,85,0.00,,,0.00,weatherlink.com 1.10,2013-07-06 03:49:00,